Weather History for Vancouver, WA

Change the Weather History Date:

Monday, May 7, 2012

  Actual Average Record
Temperature  
Mean Temperature 61 °F 56 °F  
Max Temperature 80 °F 66 °F 85 °F (1920)
Min Temperature 41 °F 46 °F 34 °F (2002)
Degree Days  
Heating Degree Days 4    
Month to date heating degree days 84  
Since 1 July heating degree days 4103  
Cooling Degree Days 0    
Month to date cooling degree days 0  
Year to date cooling degree days 4  
Growing Degree Days 11 (Base 50)    
Moisture  
Dew Point 43 °F    
Average Humidity 54    
Maximum Humidity 86    
Minimum Humidity 21    
Precipitation  
Precipitation 0.00 in 0.10 in 0.82 in (1900)
Month to date precipitation 1.18 0.67  
Year to date precipitation 21.01 16.78  
Sea Level Pressure  
Sea Level Pressure 30.20 in    
Wind  
Wind Speed 3 mph (West)    
Max Wind Speed 10 mph    
Max Gust Speed 14 mph    
Visibility 10 miles    
Events      
T = Trace of Precipitation, MM = Missing Value Source: NWS Daily Summary

Daily Weather History Graph

Daily Weather History Graph

Search for Another Location

Airport:

Trip Planner

Search our weather history database for the weather conditions in past years. The results will help you decide how hot, cold, wet, or windy it might be!

Date:

Astronomy

May. 07, 2012 Rise Set
Actual Time 5:48 AM PDT 8:26 PM PDT
Civil Twilight 5:15 AM PDT 8:59 PM PDT
Nautical Twilight 4:32 AM PDT 9:42 PM PDT
Astronomical Twilight 3:44 AM PDT 10:31 PM PDT
Moon 10:48 PM PDT (5/7) 6:55 AM PDT (5/7)
Length of Visible Light 15h 44m
Length of Day
14h 37m
Waning Gibbous, 96% of the Moon is Illuminated
May 7
Waning Gibbous
May 12
Last Quarter
May 20
New
May 28
First Quarter
Jun 4
Full

Hourly Weather History & Observations

Time (PDT) Temp. Dew Point Humidity Pressure Visibility Wind Dir Wind Speed Gust Speed Precip Events Conditions
12:53 AM 50.0 °F 41.0 °F 71% 30.32 in 10.0 mi Calm Calm - N/A   Clear
1:53 AM 46.9 °F 41.0 °F 80% 30.31 in 10.0 mi Calm Calm - N/A   Clear
2:53 AM 45.0 °F 39.9 °F 82% 30.31 in 10.0 mi Calm Calm - N/A   Clear
3:53 AM 46.9 °F 41.0 °F 80% 30.30 in 10.0 mi Calm Calm - N/A   Clear
4:53 AM 45.0 °F 39.9 °F 82% 30.30 in 10.0 mi Calm Calm - N/A   Clear
5:53 AM 42.1 °F 37.9 °F 85% 30.29 in 10.0 mi Calm Calm - N/A   Clear
6:53 AM 46.0 °F 42.1 °F 86% 30.29 in 10.0 mi Calm Calm - N/A   Clear
7:53 AM 52.0 °F 44.1 °F 74% 30.28 in 10.0 mi Calm Calm - N/A   Clear
8:53 AM 55.9 °F 43.0 °F 62% 30.27 in 10.0 mi Calm Calm - N/A   Clear
9:53 AM 59.0 °F 46.0 °F 62% 30.25 in 10.0 mi West 5.8 mph - N/A   Clear
10:53 AM 64.0 °F 46.0 °F 52% 30.23 in 10.0 mi Variable 3.5 mph - N/A   Clear
11:53 AM 66.9 °F 48.0 °F 51% 30.21 in 10.0 mi West 10.4 mph - N/A   Clear
12:53 PM 71.1 °F 46.0 °F 41% 30.19 in 10.0 mi West 9.2 mph - N/A   Clear
1:53 PM 73.9 °F 46.0 °F 37% 30.17 in 10.0 mi West 8.1 mph - N/A   Clear
2:53 PM 77.0 °F 46.0 °F 33% 30.14 in 10.0 mi WSW 9.2 mph - N/A   Clear
3:53 PM 79.0 °F 44.1 °F 29% 30.13 in 10.0 mi West 5.8 mph - N/A   Clear
4:53 PM 79.0 °F 39.0 °F 24% 30.11 in 10.0 mi Calm Calm - N/A   Clear
5:53 PM 80.1 °F 37.9 °F 22% 30.09 in 10.0 mi Calm Calm - N/A   Clear
6:53 PM 79.0 °F 45.0 °F 30% 30.07 in 10.0 mi West 3.5 mph - N/A   Clear
7:53 PM 70.0 °F 46.0 °F 42% 30.07 in 10.0 mi Calm Calm - N/A   Clear
8:53 PM 64.0 °F 48.0 °F 56% 30.07 in 10.0 mi Calm Calm - N/A   Clear
9:53 PM 70.0 °F 42.1 °F 36% 30.09 in 10.0 mi Calm Calm - N/A   Clear
10:53 PM 66.9 °F 44.1 °F 44% 30.10 in 10.0 mi NNW 3.5 mph - N/A   Clear
11:53 PM 64.9 °F 45.0 °F 48% 30.10 in 10.0 mi Calm Calm - N/A   Clear